Flag for U.S.A. Weather past 2 weeks in Albany, New York, U.S.A.

Now
47 °F

Passing clouds.


Feels Like: 43 °F
Forecast: 42 / 61 °F
Wind: 8 mph from North

Location: Albany County Airport

Current Time: Sep 19, 2014 at 2:20:10 AM

Latest Report: Sep 19, 2014 at 1:51 AM


Visibility: 10 mi

Pressure: 30.24 "Hg

Humidity: 66%

Dew point: 36 °F

Location of AlbanyLocation

Historic Weather in Albany — Graph

°F

Albany temperature yesterday

Maximum temperature yesterday: 69 °F (at 1:51 PM)
Minimum temperature yesterday: 44 °F (at 4:51 AM)
Average temperature yesterday: 55 °F

Past Weeks' High & Low Weather Summary

 TemperatureHumidityPressure
High89 °F (Sep 5, 2:51 PM)93% (Sep 4, 5:51 AM)30.36 "Hg (Sep 4, 5:51 AM)
Low42 °F (Sep 15, 5:51 AM)36% (Sep 8, 2:51 PM)29.75 "Hg (Sep 11, 1:51 PM)
Average62 °F70%30.11 "Hg
* Reported Sep 4 12:51 AM — Sep 19 12:51 AM, Albany, Weather by CustomWeather, © 2014

Note: Actual official high and low records may vary slightly from our data, if they occured in-between our weather recording intervals... More about our weather records

Advertising

Albany weather history for previous 24 hours

 ConditionsComfort  
Time TempWeatherWind HumidityBarometerVisibility
12:51 AM
Sep 19
49 °FPassing clouds.8 mph69%30.22 "Hg10 mi
11:51 PM
Sep 18
51 °FPassing clouds.6 mph69%30.19 "Hg10 mi
10:51 PM52 °FPassing clouds.13 mph66%30.18 "Hg10 mi
9:51 PM51 °FPartly cloudy.9 mph71%30.16 "Hg10 mi
8:51 PM53 °FPartly cloudy.8 mph72%30.15 "Hg10 mi
7:51 PM53 °FScattered clouds.8 mph77%30.11 "Hg10 mi
6:51 PM55 °FScattered clouds.8 mph74%30.09 "Hg10 mi
5:51 PM59 °FScattered clouds.12 mph69%30.06 "Hg10 mi
4:51 PM62 °FScattered clouds.12 mph73%30.03 "Hg10 mi
3:51 PM66 °FLight rain. Partly sunny.8 mph63%30.01 "Hg10 mi
2:51 PM69 °FPartly sunny.13 mph47%30.00 "Hg10 mi
1:51 PM69 °FBroken clouds.7 mph53%30.00 "Hg10 mi
12:51 PM66 °FBroken clouds.No wind59%30.01 "Hg10 mi
11:51 AM65 °FPartly sunny.3 mph61%30.02 "Hg10 mi
10:51 AM61 °FPartly sunny.No wind65%30.03 "Hg10 mi
9:51 AM57 °FScattered clouds.5 mph74%30.03 "Hg10 mi
8:51 AM52 °FPassing clouds.5 mph86%30.03 "Hg10 mi
7:51 AM48 °FPassing clouds.3 mph89%30.02 "Hg10 mi
6:51 AM45 °FLight fog.No wind90%30.00 "Hg10 mi
5:51 AM45 °FPassing clouds.No wind90%29.98 "Hg10 mi
4:51 AM44 °FFog.No wind89%29.97 "Hg10 mi
3:51 AM49 °FPassing clouds.6 mph86%29.97 "Hg10 mi
2:51 AM47 °FFog.No wind90%29.97 "Hg10 mi
Weather by CustomWeather, © 2014

See weather overviewHow to use our weather pages